Other Surface Observations
Issued by NWS Charleston, SC

Home | Current Version | Previous Version | Text Only | Print | Product List | Glossary On
Versions: 1 2 3 4 5 6 7 8 9 10 11 12 13 14 15 16 17 18 19 20 21 22 23 24 25 26 27 28 29 30 31 32 33 34 35 36 37 38 39 40 41 42 43 44 45 46 47 48 49 50
000
SXUS52 KCHS 210625
OSOCHS

MARINE OBSERVATIONS
NATIONAL WEATHER SERVICE CHARLESTON SC
200 AM EDT THU AUG 21 2014

...DOWNTOWN CHARLESTON AND HARBOR...

CITY           SKY/WX    TMP DP  RH WIND       PRES   REMARKS
WATERFRONT PRK   N/A     84 N/A N/A W5          N/A
FORT JOHNSON   NOT AVBL

...LAKE MOULTRIE...

CITY           SKY/WX    TMP DP  RH WIND       PRES   REMARKS
PINOPOLIS        N/A     82  73  74 W7        29.95S

...LAKE AND SUPPLEMENTAL COASTAL OBSERVATIONS...

STATION/POSITION TIME  TEMP    WIND        PRES    WAVE   SWELL
                       AIR SEA DIR/SP/G            HT/PER HT/PER/DIR
                 (UTC) (F)     (DEG/KT/KT) (MB)    (FT/S) (FT/S/D)
FORT PULASKI     0600   80     280/  6/  8 1017.5S
SAPELO ISLAND    0600   80     260/  4     1018.0S
UPR LAKE MARION  NOT AVBL
WINYAH BAY       0600   79        CALM     1016.0S
LAKE MURRAY      0500   80     300/  2/  4 1016.3F
ACE BASIN NERRS  0600   79        CALM     1017.0S


...C-MAN AND BUOY OBSERVATIONS...

STATION/POSITION TIME  TEMP    WIND        PRES    WAVE   SWELL
                       AIR SEA DIR/SP/G            HT/PER HT/PER/DIR
                 (UTC) (F)     (DEG/KT/KT) (MB)    (FT/S) (FT/S/D)
BUOY 41004       0600   83 84  220/ 10/ 12 1016.0F   3/ 4   2/ 8
BUOY 41008       0600   85 85  300/  8/ 10 1017.4F   2/ 3   2/110/ 9
FOLLY BEACH CMAN 0600   80     280/  2/  3 1017.2F
CAPERS NS BUOY   0500   85     240/  8/ 10   N/A
FRIPP NS BUOY    NOT AVBL
5E ST. MARYS GA  0600      82                N/A     1/ 3
FRYING PAN BUOY  NOT AVBL
BUOY 41025       0600   78      CALM  /  4 1016.3F   2/ 8
CAPE LOOKOUT NC  0600   80     220/  3/  4 1016.2F
BUOY 41002       0457   81 81  250/ 14/ 16 1018.2F   3/ 7   2/250/ 7
BUOY 41010       0600   84 85  190/ 12/ 16 1018.7F   2/ 9   2/110/ 9
BUOY 41012       NOT AVBL
ST AUGUSTINE FL  0600   78     220/  4/  5 1019.1F


$$



USA.gov is the U.S. government's official web portal to all federal, state and local government web resources and services.